EN

Hourly Weather Abay (Aralskiy rayon)

Today, 12 June, Saturday

Time Temperature Precipitation Wind Pressure Humidity
00:00 +30°C° 0 mm 6 mps 751 mmHg 24%
01:00 +30°C° 0 mm 7 mps 751 mmHg 26%
02:00 +29°C° 0 mm 6 mps 751 mmHg 27%
03:00 +29°C° 0 mm 6 mps 751 mmHg 27%
04:00 +28°C° 0 mm 6 mps 751 mmHg 27%
05:00 +28°C° 0 mm 6 mps 752 mmHg 25%
06:00 +29°C° 0 mm 7 mps 752 mmHg 23%
07:00 +30°C° 0 mm 7 mps 752 mmHg 21%
08:00 +32°C° 0 mm 6 mps 752 mmHg 20%
09:00 +33°C° 0 mm 5 mps 753 mmHg 18%
10:00 +35°C° 0 mm 5 mps 753 mmHg 17%
11:00 +35°C° 0 mm 5 mps 753 mmHg 17%
12:00 +36°C° 0 mm 5 mps 753 mmHg 16%
13:00 +36°C° 0 mm 5 mps 753 mmHg 16%
14:00 +36°C° 0 mm 5 mps 753 mmHg 16%
15:00 +36°C° 0 mm 4 mps 752 mmHg 15%
16:00 +36°C° 0 mm 4 mps 752 mmHg 15%
17:00 +36°C° 0 mm 4 mps 752 mmHg 15%
18:00 +35°C° 0 mm 5 mps 752 mmHg 15%
19:00 +35°C° 0 mm 5 mps 752 mmHg 15%
20:00 +34°C° 0 mm 6 mps 753 mmHg 17%
21:00 +33°C° 0 mm 6 mps 753 mmHg 18%
22:00 +30°C° 0 mm 7 mps 753 mmHg 20%
23:00 +29°C° 0 mm 7 mps 754 mmHg 18%

Tomorrow, 13 June, Sunday

Time Temperature Precipitation Wind Pressure Humidity
00:00 +28°C° 0 mm 8 mps 754 mmHg 17%
01:00 +27°C° 0 mm 8 mps 754 mmHg 16%
02:00 +27°C° 0 mm 8 mps 755 mmHg 17%
03:00 +26°C° 0 mm 8 mps 755 mmHg 18%
04:00 +24°C° 0 mm 8 mps 755 mmHg 18%
05:00 +24°C° 0 mm 8 mps 756 mmHg 19%
06:00 +26°C° 0 mm 8 mps 756 mmHg 19%
07:00 +26°C° 0 mm 8 mps 756 mmHg 19%
08:00 +27°C° 0 mm 8 mps 756 mmHg 18%
09:00 +29°C° 0 mm 7 mps 757 mmHg 17%
10:00 +30°C° 0 mm 7 mps 757 mmHg 15%
11:00 +32°C° 0 mm 7 mps 757 mmHg 14%
12:00 +33°C° 0 mm 7 mps 756 mmHg 13%
13:00 +34°C° 0 mm 6 mps 756 mmHg 11%
14:00 +34°C° 0 mm 6 mps 756 mmHg 11%
15:00 +34°C° 0 mm 6 mps 756 mmHg 11%
16:00 +34°C° 0 mm 6 mps 756 mmHg 10%
17:00 +34°C° 0 mm 6 mps 756 mmHg 11%
18:00 +33°C° 0 mm 6 mps 755 mmHg 12%
19:00 +33°C° 0 mm 6 mps 755 mmHg 12%
20:00 +32°C° 0 mm 7 mps 756 mmHg 13%
21:00 +30°C° 0 mm 7 mps 756 mmHg 14%
22:00 +29°C° 0 mm 7 mps 756 mmHg 15%
23:00 +28°C° 0 mm 7 mps 756 mmHg 16%

Day after tomorrow, 14 June, Monday

Time Temperature Precipitation Wind Pressure Humidity
00:00 +27°C° 0 mm 7 mps 756 mmHg 16%
01:00 +26°C° 0 mm 8 mps 756 mmHg 17%
02:00 +24°C° 0 mm 7 mps 756 mmHg 19%
03:00 +23°C° 0 mm 7 mps 757 mmHg 21%
04:00 +22°C° 0 mm 6 mps 757 mmHg 23%
05:00 +23°C° 0 mm 7 mps 757 mmHg 24%
06:00 +24°C° 0 mm 7 mps 758 mmHg 25%
07:00 +26°C° 0 mm 7 mps 758 mmHg 26%
08:00 +27°C° 0 mm 7 mps 758 mmHg 23%
09:00 +28°C° 0 mm 7 mps 758 mmHg 21%
10:00 +30°C° 0 mm 6 mps 758 mmHg 18%
11:00 +32°C° 0 mm 6 mps 757 mmHg 17%
12:00 +33°C° 0 mm 6 mps 757 mmHg 16%
13:00 +33°C° 0 mm 5 mps 757 mmHg 15%
14:00 +34°C° 0 mm 5 mps 757 mmHg 15%
15:00 +34°C° 0 mm 5 mps 756 mmHg 14%
16:00 +34°C° 0 mm 5 mps 756 mmHg 14%
17:00 +34°C° 0 mm 5 mps 756 mmHg 14%
18:00 +34°C° 0 mm 5 mps 756 mmHg 15%
19:00 +33°C° 0 mm 5 mps 756 mmHg 15%
20:00 +32°C° 0 mm 4 mps 756 mmHg 16%
21:00 +30°C° 0 mm 4 mps 756 mmHg 18%
22:00 +29°C° 0 mm 4 mps 756 mmHg 19%
23:00 +28°C° 0 mm 4 mps 756 mmHg 21%

15 June, Tuesday

Time Temperature Precipitation Wind Pressure Humidity
00:00 +27°C° 0 mm 4 mps 756 mmHg 23%
01:00 +26°C° 0 mm 4 mps 756 mmHg 25%
02:00 +26°C° 0 mm 4 mps 756 mmHg 28%
03:00 +25°C° 0 mm 4 mps 756 mmHg 31%
04:00 +25°C° 0 mm 4 mps 756 mmHg 34%
05:00 +26°C° 0 mm 5 mps 757 mmHg 33%
06:00 +27°C° 0 mm 5 mps 757 mmHg 32%
07:00 +28°C° 0 mm 6 mps 757 mmHg 32%
08:00 +29°C° 0 mm 6 mps 757 mmHg 29%
09:00 +32°C° 0 mm 5 mps 757 mmHg 27%
10:00 +33°C° 0 mm 5 mps 756 mmHg 25%
11:00 +34°C° 0 mm 5 mps 756 mmHg 23%
12:00 +34°C° 0 mm 5 mps 755 mmHg 22%
13:00 +35°C° 0 mm 5 mps 755 mmHg 20%
14:00 +36°C° 0 mm 5 mps 755 mmHg 19%
15:00 +36°C° 0 mm 5 mps 754 mmHg 18%
16:00 +36°C° 0 mm 5 mps 754 mmHg 17%
17:00 +36°C° 0 mm 4 mps 754 mmHg 18%
18:00 +35°C° 0 mm 4 mps 753 mmHg 18%
19:00 +35°C° 0 mm 4 mps 753 mmHg 18%
20:00 +34°C° 0 mm 3 mps 753 mmHg 19%
21:00 +33°C° 0 mm 3 mps 753 mmHg 21%
22:00 +31°C° 0 mm 2 mps 753 mmHg 22%
23:00 +30°C° 0 mm 2 mps 753 mmHg 23%

16 June, Wednesday

Time Temperature Precipitation Wind Pressure Humidity
00:00 +30°C° 0 mm 3 mps 753 mmHg 24%
01:00 +29°C° 0 mm 3 mps 753 mmHg 25%
02:00 +28°C° 0 mm 3 mps 753 mmHg 26%
03:00 +28°C° 0 mm 3 mps 753 mmHg 27%
04:00 +27°C° 0 mm 3 mps 753 mmHg 28%
05:00 +29°C° 0 mm 4 mps 753 mmHg 25%
06:00 +30°C° 0 mm 5 mps 754 mmHg 21%
07:00 +32°C° 0 mm 5 mps 754 mmHg 18%
08:00 +34°C° 0 mm 5 mps 754 mmHg 18%
09:00 +35°C° 0 mm 5 mps 754 mmHg 17%
10:00 +36°C° 0 mm 4 mps 754 mmHg 16%
11:00 +37°C° 0 mm 4 mps 754 mmHg 15%
12:00 +37°C° 0 mm 4 mps 753 mmHg 15%
13:00 +38°C° 0 mm 4 mps 753 mmHg 14%
14:00 +38°C° 0 mm 4 mps 753 mmHg 14%
15:00 +38°C° 0 mm 4 mps 753 mmHg 13%
16:00 +38°C° 0 mm 4 mps 753 mmHg 13%
17:00 +38°C° 0 mm 4 mps 753 mmHg 14%
18:00 +37°C° 0 mm 4 mps 753 mmHg 14%
19:00 +37°C° 0 mm 4 mps 753 mmHg 15%
20:00 +36°C° 0 mm 4 mps 753 mmHg 16%
21:00 +34°C° 0 mm 4 mps 753 mmHg 18%
22:00 +33°C° 0 mm 3 mps 753 mmHg 19%
23:00 +33°C° 0 mm 3 mps 753 mmHg 20%

17 June, Thursday

Time Temperature Precipitation Wind Pressure Humidity
00:00 +31°C° 0 mm 3 mps 753 mmHg 21%
01:00 +30°C° 0 mm 3 mps 753 mmHg 21%
02:00 +30°C° 0 mm 3 mps 753 mmHg 22%
03:00 +29°C° 0 mm 3 mps 753 mmHg 23%
04:00 +28°C° 0 mm 3 mps 753 mmHg 23%
05:00 +30°C° 0 mm 3 mps 753 mmHg 21%
06:00 +31°C° 0 mm 3 mps 753 mmHg 19%
07:00 +34°C° 0 mm 2 mps 754 mmHg 17%
08:00 +35°C° 0 mm 2 mps 753 mmHg 16%
09:00 +36°C° 0 mm 2 mps 753 mmHg 15%
10:00 +37°C° 0 mm 2 mps 753 mmHg 14%
11:00 +38°C° 0 mm 2 mps 753 mmHg 13%
12:00 +37°C° 0 mm 1 mps 753 mmHg 13%
13:00 +39°C° 0 mm 1 mps 752 mmHg 12%
14:00 +39°C° 0 mm 1 mps 752 mmHg 12%
15:00 +39°C° 0 mm 1 mps 752 mmHg 12%
16:00 +40°C° 0 mm 1 mps 751 mmHg 11%
17:00 +39°C° 0 mm 1 mps 751 mmHg 12%
18:00 +39°C° 0 mm 1 mps 751 mmHg 12%
19:00 +37°C° 0 mm 1 mps 751 mmHg 13%
20:00 +37°C° 0 mm 2 mps 751 mmHg 13%
21:00 +36°C° 0 mm 2 mps 751 mmHg 14%
22:00 +35°C° 0 mm 3 mps 750 mmHg 15%
23:00 +34°C° 0 mm 3 mps 750 mmHg 15%
Show more